TimeEDT,TemperatureF,Dew PointF,Humidity,Sea Level PressureIn,VisibilityMPH,Wind Direction,Wind SpeedMPH,Gust SpeedMPH,PrecipitationIn,Events,Conditions,WindDirDegrees,DateUTC
12:53 AM,52.0,37.9,59,30.25,10.0,North,6.9,-,N/A,,Clear,360,2013-03-27 04:53:00
1:53 AM,52.0,37.0,57,30.24,10.0,North,5.8,-,N/A,,Clear,360,2013-03-27 05:53:00
2:53 AM,53.1,37.0,55,30.23,10.0,NNE,11.5,-,N/A,,Clear,20,2013-03-27 06:53:00
3:53 AM,52.0,35.1,53,30.23,10.0,NNE,12.7,-,N/A,,Clear,20,2013-03-27 07:53:00
4:53 AM,51.1,35.1,54,30.23,10.0,NNE,10.4,-,N/A,,Clear,20,2013-03-27 08:53:00
5:53 AM,51.1,35.1,54,30.24,10.0,NNE,10.4,-,N/A,,Clear,20,2013-03-27 09:53:00
6:53 AM,50.0,37.0,61,30.26,10.0,NE,15.0,-,N/A,,Clear,40,2013-03-27 10:53:00
7:53 AM,48.9,37.0,64,30.29,10.0,NNE,10.4,-,N/A,,Clear,30,2013-03-27 11:53:00
8:53 AM,48.9,35.1,59,30.32,10.0,NNE,13.8,-,N/A,,Clear,30,2013-03-27 12:53:00
9:53 AM,50.0,35.1,57,30.33,10.0,NNE,10.4,-,N/A,,Clear,30,2013-03-27 13:53:00
10:53 AM,51.1,32.0,48,30.34,10.0,North,8.1,-,N/A,,Clear,10,2013-03-27 14:53:00
11:53 AM,54.0,32.0,43,30.34,10.0,NNE,9.2,-,N/A,,Clear,30,2013-03-27 15:53:00
12:53 PM,55.9,32.0,40,30.32,10.0,NNE,9.2,-,N/A,,Clear,20,2013-03-27 16:53:00
1:53 PM,55.0,35.1,47,30.30,10.0,North,11.5,19.6,N/A,,Clear,360,2013-03-27 17:53:00
2:53 PM,55.9,36.0,47,30.28,10.0,NNE,12.7,-,N/A,,Clear,20,2013-03-27 18:53:00
3:53 PM,57.9,37.9,47,30.26,10.0,North,6.9,-,N/A,,Clear,10,2013-03-27 19:53:00
4:53 PM,57.0,37.0,47,30.25,10.0,NNW,13.8,19.6,N/A,,Clear,340,2013-03-27 20:53:00
5:53 PM,55.9,37.9,51,30.25,10.0,NNW,13.8,19.6,N/A,,Clear,330,2013-03-27 21:53:00
6:53 PM,55.0,39.0,55,30.25,10.0,NNW,11.5,-,N/A,,Clear,340,2013-03-27 22:53:00
7:53 PM,53.1,39.9,61,30.25,10.0,North,10.4,-,N/A,,Clear,350,2013-03-27 23:53:00
8:53 PM,52.0,39.9,63,30.27,10.0,North,5.8,-,N/A,,Clear,350,2013-03-28 00:53:00
9:53 PM,52.0,39.9,63,30.27,10.0,North,4.6,-,N/A,,Clear,350,2013-03-28 01:53:00
10:53 PM,52.0,41.0,66,30.28,10.0,North,5.8,-,N/A,,Clear,360,2013-03-28 02:53:00
11:53 PM,52.0,42.1,69,30.27,10.0,North,5.8,-,N/A,,Clear,360,2013-03-28 03:53:00